{"data":{"norad_id":62067,"epoch":"2026-05-25T02:59:35.294784Z","epoch_age_seconds":63453,"freshness":"FRESH","line1":"1 62067U 24217L   26145.12471406  .00232695  00000+0  18668-2 0  9997","line2":"2 62067  53.1567  54.8151 0000892  85.8299 274.2821 15.69778605 87100","mean_motion":15.69778605,"eccentricity":8.92e-5,"inclination_deg":53.1567,"raan_deg":54.8151,"arg_perigee_deg":85.8299,"mean_anomaly_deg":274.2821,"bstar":0.0018668,"rev_number":8710,"period_min":91.732680991661,"perigee_km":358.92943638505,"apogee_km":360.13143625569,"semimajor_km":6737.6674363204,"source":"CELESTRAK","updated_at":"2026-05-25T13:38:19.531816Z"}}